UAL973 KBOS-CYHZ

Flight info

Callsign UAL973
Flight time 0h 59m
Altitude 33000
Route LBSTA8 LBSTA DCT ALLEX FUNDY5
Aircraft B38M/M-SDE1FGHILORVWXY/HB1

Departure

Time 2026-05-08 01:10
Airport Boston Logan International Airport (KBOS)

Arrival

Time 2026-05-08 02:10
Airport Halifax / Stanfield International Airport (CYHZ)
Time Latitude Longitude Altitude Speed Heading
2026-05-08 00:39 42.36550 -71.01551 25 ft 0 kts 44°
2026-05-08 00:59 42.36533 -71.01576 27 ft 4 kts 54°
2026-05-08 00:59 42.36521 -71.01607 27 ft 4 kts 79°
2026-05-08 01:00 42.36524 -71.01636 29 ft 4 kts 141°
2026-05-08 01:00 42.36528 -71.01640 28 ft 0 kts 154°
2026-05-08 01:03 42.36514 -71.01631 21 ft 6 kts 154°
2026-05-08 01:04 42.36467 -71.01599 26 ft 9 kts 154°
2026-05-08 01:04 42.36427 -71.01546 26 ft 8 kts 124°
2026-05-08 01:04 42.36398 -71.01489 24 ft 7 kts 111°
2026-05-08 01:04 42.36378 -71.01414 27 ft 10 kts 110°
2026-05-08 01:05 42.36343 -71.01330 25 ft 10 kts 120°
2026-05-08 01:05 42.36305 -71.01243 28 ft 11 kts 121°
2026-05-08 01:05 42.36264 -71.01153 28 ft 13 kts 118°
2026-05-08 01:05 42.36222 -71.01033 27 ft 16 kts 114°
2026-05-08 01:06 42.36177 -71.00891 27 ft 18 kts 113°
2026-05-08 01:06 42.36120 -71.00723 24 ft 22 kts 114°
2026-05-08 01:06 42.36078 -71.00543 26 ft 19 kts 110°
2026-05-08 01:06 42.36031 -71.00363 27 ft 21 kts 108°
2026-05-08 01:07 42.35984 -71.00172 30 ft 22 kts 111°
2026-05-08 01:07 42.35925 -71.00037 30 ft 12 kts 134°
2026-05-08 01:07 42.35865 -70.99955 32 ft 12 kts 134°
2026-05-08 01:07 42.35802 -70.99868 32 ft 14 kts 136°
2026-05-08 01:08 42.35721 -70.99761 29 ft 18 kts 134°
2026-05-08 01:08 42.35624 -70.99632 29 ft 20 kts 135°
2026-05-08 01:08 42.35526 -70.99504 28 ft 18 kts 136°
2026-05-08 01:08 42.35490 -70.99392 27 ft 12 kts 79°
2026-05-08 01:09 42.35492 -70.99373 28 ft 2 kts 79°
2026-05-08 01:09 42.35505 -70.99300 28 ft 15 kts 77°
2026-05-08 01:09 42.35532 -70.99245 29 ft 1 kts 28°
2026-05-08 01:09 42.35588 -70.99256 28 ft 15 kts 328°
2026-05-08 01:10 42.35695 -70.99456 28 ft 56 kts 309°
2026-05-08 01:10 42.36159 -71.00090 28 ft 131 kts 315°
2026-05-08 01:10 42.36904 -71.01101 362 ft 162 kts 314°
2026-05-08 01:10 42.37725 -71.02192 1134 ft 172 kts 314°
2026-05-08 01:11 42.38520 -71.03339 2170 ft 165 kts 301°
2026-05-08 01:11 42.39122 -71.04775 2796 ft 183 kts 299°
2026-05-08 01:11 42.39770 -71.06342 3402 ft 202 kts 300°
2026-05-08 01:11 42.40483 -71.08033 4241 ft 212 kts 300°
2026-05-08 01:12 42.41321 -71.09741 5073 ft 224 kts 312°
2026-05-08 01:12 42.42658 -71.10934 5829 ft 239 kts 339°
2026-05-08 01:12 42.44244 -71.11473 6882 ft 239 kts 342°
2026-05-08 01:12 42.45863 -71.12260 7592 ft 255 kts 334°
2026-05-08 01:13 42.47539 -71.13222 8328 ft 268 kts 334°
2026-05-08 01:13 42.49344 -71.13939 9334 ft 276 kts 352°
2026-05-08 01:13 42.51273 -71.13547 10202 ft 292 kts 17°
2026-05-08 01:13 42.53023 -71.11957 10800 ft 317 kts 44°
2026-05-08 01:14 42.54355 -71.09475 11409 ft 333 kts 52°
2026-05-08 01:14 42.55724 -71.06866 12060 ft 345 kts 51°
2026-05-08 01:14 42.57147 -71.04188 12782 ft 354 kts 51°
2026-05-08 01:14 42.58605 -71.01459 13576 ft 362 kts 51°
2026-05-08 01:15 42.60104 -70.98661 13899 ft 369 kts 51°
2026-05-08 01:15 42.61597 -70.95876 13990 ft 370 kts 51°
2026-05-08 01:15 42.63111 -70.93050 14125 ft 371 kts 51°
2026-05-08 01:15 42.64653 -70.90171 14872 ft 376 kts 51°
2026-05-08 01:16 42.66207 -70.87264 15532 ft 384 kts 52°
2026-05-08 01:16 42.67774 -70.84330 16201 ft 392 kts 52°
2026-05-08 01:16 42.69392 -70.81299 16861 ft 400 kts 52°
2026-05-08 01:16 42.71040 -70.78211 17520 ft 407 kts 53°
2026-05-08 01:17 42.72720 -70.75056 18152 ft 415 kts 53°
2026-05-08 01:17 42.74418 -70.71865 18733 ft 420 kts 53°
2026-05-08 01:17 42.76141 -70.68625 19363 ft 424 kts 53°
2026-05-08 01:17 42.77875 -70.65360 19980 ft 428 kts 53°
2026-05-08 01:18 42.79619 -70.62056 20593 ft 432 kts 55°
2026-05-08 01:18 42.81249 -70.58593 21177 ft 436 kts 57°
2026-05-08 01:18 42.82891 -70.55100 21783 ft 440 kts 56°
2026-05-08 01:18 42.84565 -70.51558 22356 ft 444 kts 56°
2026-05-08 01:19 42.86245 -70.48011 22934 ft 447 kts 56°
2026-05-08 01:19 42.87941 -70.44427 23483 ft 451 kts 56°
2026-05-08 01:19 42.89649 -70.40815 23945 ft 455 kts 56°
2026-05-08 01:19 42.91362 -70.37187 24422 ft 458 kts 56°
2026-05-08 01:20 42.93095 -70.33513 24880 ft 461 kts 56°
2026-05-08 01:20 42.94836 -70.29816 25330 ft 464 kts 56°
2026-05-08 01:20 42.96586 -70.26098 25774 ft 467 kts 56°
2026-05-08 01:20 42.98345 -70.22354 26218 ft 470 kts 56°
2026-05-08 01:21 43.00121 -70.18568 26656 ft 474 kts 57°
2026-05-08 01:21 43.01902 -70.14770 27086 ft 477 kts 57°
2026-05-08 01:21 43.03694 -70.10941 27506 ft 480 kts 57°
2026-05-08 01:21 43.05470 -70.07141 27915 ft 482 kts 57°
2026-05-08 01:22 43.07284 -70.03257 28323 ft 485 kts 57°
2026-05-08 01:22 43.09110 -69.99341 28712 ft 488 kts 57°
2026-05-08 01:22 43.10937 -69.95418 29105 ft 491 kts 57°
2026-05-08 01:22 43.12778 -69.91457 29504 ft 494 kts 57°
2026-05-08 01:23 43.14627 -69.87476 29873 ft 497 kts 57°
2026-05-08 01:23 43.16489 -69.83461 30199 ft 499 kts 57°
2026-05-08 01:23 43.18354 -69.79434 30514 ft 502 kts 57°
2026-05-08 01:23 43.20222 -69.75395 30815 ft 504 kts 57°
2026-05-08 01:24 43.22105 -69.71318 31121 ft 507 kts 58°
2026-05-08 01:24 43.23997 -69.67216 31414 ft 510 kts 58°
2026-05-08 01:24 43.25898 -69.63089 31721 ft 512 kts 58°
2026-05-08 01:24 43.27800 -69.58953 32099 ft 512 kts 58°
2026-05-08 01:25 43.29690 -69.54838 32475 ft 512 kts 58°
2026-05-08 01:25 43.31594 -69.50685 32798 ft 513 kts 58°
2026-05-08 01:25 43.33498 -69.46529 32842 ft 513 kts 58°
2026-05-08 01:26 43.37284 -69.38244 32809 ft 511 kts 58°
2026-05-08 01:26 43.41064 -69.29949 32810 ft 512 kts 58°
2026-05-08 01:27 43.44815 -69.21695 32809 ft 512 kts 59°
2026-05-08 01:27 43.48585 -69.13378 32810 ft 512 kts 59°
2026-05-08 01:28 43.52349 -69.05047 32800 ft 512 kts 59°
2026-05-08 01:28 43.56114 -68.96691 32818 ft 513 kts 59°
2026-05-08 01:29 43.59873 -68.88323 32808 ft 513 kts 59°
2026-05-08 01:29 43.62996 -68.81354 32809 ft 514 kts 59°
2026-05-08 01:30 43.67362 -68.71583 32807 ft 515 kts 60°
2026-05-08 01:30 43.70507 -68.64523 32812 ft 515 kts 60°
2026-05-08 01:31 43.74265 -68.56066 32805 ft 516 kts 60°
2026-05-08 01:31 43.78013 -68.47607 32803 ft 516 kts 60°
2026-05-08 01:32 43.81743 -68.39162 32789 ft 517 kts 60°
2026-05-08 01:32 43.85487 -68.30661 32791 ft 518 kts 60°
2026-05-08 01:33 43.89234 -68.22130 32790 ft 518 kts 61°
2026-05-08 01:33 43.92980 -68.13573 32784 ft 519 kts 61°
2026-05-08 01:34 43.96720 -68.05007 32792 ft 519 kts 61°
2026-05-08 01:34 44.00462 -67.96410 32789 ft 520 kts 62°
2026-05-08 01:35 44.04205 -67.87786 32784 ft 521 kts 62°
2026-05-08 01:35 44.07943 -67.79146 32787 ft 522 kts 62°
2026-05-08 01:36 44.11680 -67.70482 32770 ft 523 kts 62°
2026-05-08 01:36 44.15419 -67.61787 32781 ft 524 kts 62°
2026-05-08 01:37 44.19154 -67.53077 32772 ft 524 kts 63°
2026-05-08 01:37 44.22892 -67.44333 32766 ft 525 kts 63°
2026-05-08 01:38 44.26608 -67.35615 32767 ft 526 kts 63°
2026-05-08 01:38 44.30351 -67.26812 32763 ft 527 kts 63°
2026-05-08 01:39 44.34091 -67.17991 32764 ft 528 kts 63°
2026-05-08 01:39 44.37829 -67.09146 32760 ft 529 kts 64°
2026-05-08 01:40 44.41408 -67.00188 32743 ft 522 kts 75°
2026-05-08 01:40 44.42415 -66.95396 32764 ft 511 kts 85°
2026-05-08 01:40 44.43275 -66.90553 32748 ft 514 kts 84°
2026-05-08 01:41 44.44976 -66.80820 32741 ft 514 kts 85°
2026-05-08 01:41 44.46644 -66.71079 32731 ft 514 kts 85°
2026-05-08 01:42 44.48303 -66.61332 32733 ft 515 kts 86°
2026-05-08 01:42 44.49947 -66.51620 32732 ft 515 kts 86°
2026-05-08 01:43 44.51593 -66.41846 32723 ft 515 kts 86°
2026-05-08 01:43 44.53232 -66.32056 32723 ft 516 kts 87°
2026-05-08 01:44 44.54862 -66.22262 32729 ft 516 kts 87°
2026-05-08 01:44 44.56477 -66.12509 32431 ft 507 kts 88°
2026-05-08 01:44 44.57267 -66.07715 31960 ft 503 kts 88°
2026-05-08 01:45 44.58056 -66.02912 31034 ft 507 kts 88°
2026-05-08 01:45 44.58844 -65.98101 30197 ft 505 kts 88°
2026-05-08 01:45 44.59623 -65.93355 29813 ft 491 kts 88°
2026-05-08 01:45 44.60377 -65.88730 29387 ft 484 kts 88°
2026-05-08 01:46 44.61122 -65.84139 28909 ft 482 kts 88°
2026-05-08 01:46 44.61863 -65.79566 28468 ft 478 kts 88°
2026-05-08 01:46 44.62596 -65.75030 28034 ft 475 kts 88°
2026-05-08 01:46 44.63323 -65.70520 27600 ft 472 kts 87°
2026-05-08 01:47 44.64047 -65.66020 27167 ft 470 kts 86°
2026-05-08 01:47 44.64755 -65.61606 26718 ft 468 kts 86°
2026-05-08 01:47 44.65466 -65.57157 26277 ft 466 kts 86°
2026-05-08 01:48 44.66881 -65.48277 25378 ft 464 kts 85°
2026-05-08 01:48 44.67582 -65.43858 24925 ft 464 kts 84°
2026-05-08 01:48 44.68283 -65.39428 24466 ft 464 kts 84°
2026-05-08 01:48 44.68982 -65.34996 24005 ft 464 kts 83°
2026-05-08 01:49 44.69677 -65.30580 23541 ft 463 kts 83°
2026-05-08 01:49 44.70372 -65.26151 23042 ft 463 kts 82°
2026-05-08 01:49 44.71061 -65.21739 22527 ft 462 kts 82°
2026-05-08 01:49 44.71747 -65.17342 22064 ft 459 kts 82°
2026-05-08 01:50 44.72427 -65.12977 21631 ft 456 kts 82°
2026-05-08 01:50 44.73104 -65.08618 21163 ft 453 kts 82°
2026-05-08 01:50 44.73763 -65.04361 20722 ft 451 kts 82°
2026-05-08 01:50 44.74428 -65.00050 20271 ft 447 kts 83°
2026-05-08 01:51 44.75083 -64.95803 19823 ft 438 kts 83°
2026-05-08 01:51 44.75720 -64.91678 19403 ft 425 kts 83°
2026-05-08 01:51 44.76335 -64.87661 18980 ft 414 kts 83°
2026-05-08 01:51 44.76934 -64.83750 18556 ft 404 kts 84°
2026-05-08 01:52 44.77519 -64.79925 18159 ft 394 kts 84°
2026-05-08 01:52 44.78083 -64.76196 17685 ft 386 kts 84°
2026-05-08 01:52 44.78635 -64.72550 17309 ft 377 kts 84°
2026-05-08 01:52 44.79178 -64.68955 16919 ft 375 kts 83°
2026-05-08 01:53 44.79720 -64.65365 16530 ft 374 kts 83°
2026-05-08 01:53 44.80251 -64.61844 16256 ft 369 kts 83°
2026-05-08 01:53 44.80780 -64.58322 15998 ft 364 kts 83°
2026-05-08 01:53 44.81302 -64.54847 15654 ft 363 kts 82°
2026-05-08 01:54 44.81820 -64.51384 15284 ft 362 kts 82°
2026-05-08 01:54 44.82339 -64.47911 14903 ft 361 kts 82°
2026-05-08 01:54 44.82855 -64.44451 14524 ft 361 kts 81°
2026-05-08 01:54 44.83370 -64.40988 14152 ft 361 kts 81°
2026-05-08 01:55 44.83881 -64.37541 13771 ft 361 kts 81°
2026-05-08 01:55 44.84397 -64.34064 13371 ft 361 kts 80°
2026-05-08 01:55 44.84908 -64.30595 12942 ft 361 kts 80°
2026-05-08 01:55 44.85416 -64.27146 12550 ft 359 kts 81°
2026-05-08 01:56 44.85922 -64.23707 12172 ft 357 kts 81°
2026-05-08 01:56 44.86339 -64.20284 11766 ft 353 kts 92°
2026-05-08 01:56 44.86099 -64.16889 11390 ft 345 kts 103°
2026-05-08 01:56 44.85766 -64.13560 11070 ft 342 kts 103°
2026-05-08 01:57 44.85443 -64.10253 10722 ft 339 kts 103°
2026-05-08 01:57 44.85123 -64.06960 10362 ft 338 kts 103°
2026-05-08 01:57 44.84804 -64.03694 10003 ft 336 kts 103°
2026-05-08 01:57 44.84485 -64.00444 9639 ft 334 kts 103°
2026-05-08 01:58 44.84167 -63.97196 9255 ft 333 kts 102°
2026-05-08 01:58 44.83856 -63.94031 8873 ft 325 kts 102°
2026-05-08 01:58 44.83552 -63.90938 8544 ft 312 kts 102°
2026-05-08 01:58 44.83253 -63.87925 8215 ft 301 kts 101°
2026-05-08 01:59 44.82968 -63.85053 7892 ft 291 kts 101°
2026-05-08 01:59 44.82692 -63.82276 7586 ft 281 kts 101°
2026-05-08 01:59 44.82425 -63.79608 7294 ft 273 kts 101°
2026-05-08 01:59 44.82156 -63.76930 6999 ft 280 kts 100°
2026-05-08 02:00 44.81886 -63.74228 6690 ft 285 kts 100°
2026-05-08 02:00 44.81608 -63.71462 6387 ft 285 kts 99°
2026-05-08 02:00 44.81330 -63.68710 6080 ft 283 kts 99°
2026-05-08 02:00 44.81053 -63.65963 5749 ft 283 kts 99°
2026-05-08 02:01 44.80774 -63.63221 5492 ft 281 kts 99°
2026-05-08 02:01 44.80503 -63.60551 5351 ft 272 kts 99°
2026-05-08 02:01 44.80237 -63.57933 5210 ft 264 kts 99°
2026-05-08 02:01 44.79980 -63.55407 5097 ft 255 kts 98°
2026-05-08 02:02 44.79644 -63.53010 5001 ft 245 kts 114°
2026-05-08 02:02 44.78779 -63.51011 4817 ft 237 kts 127°
2026-05-08 02:02 44.77837 -63.49093 4662 ft 238 kts 127°
2026-05-08 02:02 44.76904 -63.47206 4552 ft 231 kts 127°
2026-05-08 02:03 44.75995 -63.45377 4406 ft 224 kts 127°
2026-05-08 02:03 44.75115 -63.43616 4264 ft 217 kts 127°
2026-05-08 02:03 44.74263 -63.41913 4128 ft 211 kts 127°
2026-05-08 02:03 44.73415 -63.40221 4023 ft 210 kts 126°
2026-05-08 02:04 44.72860 -63.38347 3854 ft 208 kts 94°
2026-05-08 02:04 44.73117 -63.36444 3713 ft 194 kts 59°
2026-05-08 02:04 44.73954 -63.35060 3521 ft 182 kts 36°
2026-05-08 02:04 44.74936 -63.33974 3345 ft 178 kts 33°
2026-05-08 02:05 44.75924 -63.32925 3184 ft 177 kts 33°
2026-05-08 02:05 44.76916 -63.31908 3038 ft 175 kts 28°
2026-05-08 02:05 44.78034 -63.31505 2932 ft 164 kts 349°
2026-05-08 02:05 44.79058 -63.32073 2994 ft 162 kts 325°
2026-05-08 02:06 44.79925 -63.33081 3038 ft 162 kts 312°
2026-05-08 02:06 44.80632 -63.34315 3003 ft 162 kts 305°
2026-05-08 02:06 44.81282 -63.35613 2827 ft 161 kts 305°
2026-05-08 02:06 44.81928 -63.36899 2641 ft 161 kts 305°
2026-05-08 02:07 44.82574 -63.38185 2413 ft 160 kts 305°
2026-05-08 02:07 44.83215 -63.39460 2206 ft 159 kts 305°
2026-05-08 02:07 44.83826 -63.40678 2008 ft 144 kts 305°
2026-05-08 02:07 44.84392 -63.41805 1813 ft 138 kts 305°
2026-05-08 02:08 44.84943 -63.42901 1644 ft 137 kts 305°
2026-05-08 02:08 44.85490 -63.43990 1449 ft 136 kts 305°
2026-05-08 02:08 44.86036 -63.45076 1248 ft 136 kts 306°
2026-05-08 02:08 44.86588 -63.46181 1035 ft 138 kts 304°
2026-05-08 02:09 44.87128 -63.47291 902 ft 140 kts 306°
2026-05-08 02:09 44.87707 -63.48384 666 ft 140 kts 306°
2026-05-08 02:09 44.88262 -63.49509 503 ft 137 kts 306°
2026-05-08 02:09 44.88748 -63.50492 458 ft 93 kts 305°
2026-05-08 02:10 44.88990 -63.50970 452 ft 41 kts 304°
2026-05-08 02:10 44.89087 -63.51202 451 ft 3 kts 265°
2026-05-08 02:10 44.89085 -63.51205 451 ft 2 kts 231°
2026-05-08 02:10 44.89018 -63.51265 452 ft 16 kts 211°
2026-05-08 02:11 44.88967 -63.51323 452 ft 3 kts 205°
2026-05-08 02:11 44.88938 -63.51324 452 ft 6 kts 171°
2026-05-08 02:11 44.88886 -63.51309 453 ft 9 kts 169°
2026-05-08 02:11 44.88819 -63.51293 453 ft 10 kts 171°
2026-05-08 02:12 44.88741 -63.51274 455 ft 12 kts 169°
2026-05-08 02:12 44.88654 -63.51253 456 ft 14 kts 170°
2026-05-08 02:12 44.88599 -63.51240 456 ft 1 kts 166°
2026-05-08 02:12 44.88583 -63.51235 456 ft 5 kts 167°
2026-05-08 02:13 44.88560 -63.51238 456 ft 5 kts 208°
2026-05-08 02:13 44.88549 -63.51278 456 ft 3 kts 276°
2026-05-08 02:13 44.88548 -63.51321 456 ft 6 kts 268°
2026-05-08 02:13 44.88548 -63.51350 456 ft 1 kts 268°
2026-05-08 02:14 44.88547 -63.51352 456 ft 0 kts 268°
2026-05-08 02:14 44.88547 -63.51356 456 ft 2 kts 267°
2026-05-08 02:14 44.88547 -63.51361 456 ft 0 kts 267°